Year,Month,Day,Hour,Minute,Value (Times are PST for temperature in C)
2017,05,06,00,00,8.40
2017,05,06,00,01,8.40
2017,05,06,00,02,8.40
2017,05,06,00,03,8.40
2017,05,06,00,04,8.40
2017,05,06,00,05,8.40
2017,05,06,00,06,8.40
2017,05,06,00,07,8.40
2017,05,06,00,08,8.40
2017,05,06,00,09,8.40
2017,05,06,00,10,8.40
2017,05,06,00,11,8.40
2017,05,06,00,12,8.40
2017,05,06,00,13,8.50
2017,05,06,00,14,8.50
2017,05,06,00,15,8.50
2017,05,06,00,16,8.40
2017,05,06,00,17,8.40
2017,05,06,00,18,8.40
2017,05,06,00,19,8.40
2017,05,06,00,20,8.50
2017,05,06,00,21,8.50
2017,05,06,00,22,8.60
2017,05,06,00,23,8.60
2017,05,06,00,24,8.60
2017,05,06,00,25,8.60
2017,05,06,00,26,8.60
2017,05,06,00,27,8.60
2017,05,06,00,28,8.60
2017,05,06,00,29,8.60
2017,05,06,00,30,8.60
2017,05,06,00,31,8.60
2017,05,06,00,32,8.60
2017,05,06,00,33,8.60
2017,05,06,00,34,8.70
2017,05,06,00,35,8.70
2017,05,06,00,36,8.70
2017,05,06,00,37,8.70
2017,05,06,00,38,8.60
2017,05,06,00,39,8.60
2017,05,06,00,40,8.50
2017,05,06,00,41,8.50
2017,05,06,00,42,8.40
2017,05,06,00,43,8.40
2017,05,06,00,44,8.40
2017,05,06,00,45,8.30
2017,05,06,00,46,8.30
2017,05,06,00,47,8.30
2017,05,06,00,48,8.20
2017,05,06,00,49,8.20
2017,05,06,00,50,8.10
2017,05,06,00,51,8.00
2017,05,06,00,52,8.00
2017,05,06,00,53,7.90
2017,05,06,00,54,7.90
2017,05,06,00,55,8.00
2017,05,06,00,56,8.00
2017,05,06,00,57,8.10
2017,05,06,00,58,8.10
2017,05,06,00,59,8.10
2017,05,06,01,00,8.10
2017,05,06,01,01,8.10
2017,05,06,01,02,8.10
2017,05,06,01,03,8.10
2017,05,06,01,04,8.10
2017,05,06,01,05,8.10
2017,05,06,01,06,8.10
2017,05,06,01,07,8.20
2017,05,06,01,08,8.20
2017,05,06,01,09,8.20
2017,05,06,01,10,8.20
2017,05,06,01,11,8.20
2017,05,06,01,12,8.20
2017,05,06,01,13,8.20
2017,05,06,01,14,8.20
2017,05,06,01,15,8.20
2017,05,06,01,16,8.20
2017,05,06,01,17,8.20
2017,05,06,01,18,8.20
2017,05,06,01,19,8.20
2017,05,06,01,20,8.10
2017,05,06,01,21,8.10
2017,05,06,01,22,8.10
2017,05,06,01,23,8.00
2017,05,06,01,24,7.90
2017,05,06,01,25,7.90
2017,05,06,01,26,7.90
2017,05,06,01,27,7.80
2017,05,06,01,28,7.80
2017,05,06,01,29,7.90
2017,05,06,01,30,7.90
2017,05,06,01,31,7.80
2017,05,06,01,32,7.80
2017,05,06,01,33,7.80
2017,05,06,01,34,7.80
2017,05,06,01,35,7.80
2017,05,06,01,36,7.80
2017,05,06,01,37,7.80
2017,05,06,01,38,7.80
2017,05,06,01,39,7.80
2017,05,06,01,40,7.80
2017,05,06,01,41,7.80
2017,05,06,01,42,7.90
2017,05,06,01,43,7.80
2017,05,06,01,44,7.80
2017,05,06,01,45,7.80
2017,05,06,01,46,7.80
2017,05,06,01,47,7.80
2017,05,06,01,48,7.80
2017,05,06,01,49,7.80
2017,05,06,01,50,7.80
2017,05,06,01,51,7.80
2017,05,06,01,52,7.80
2017,05,06,01,53,7.70
2017,05,06,01,54,7.70
2017,05,06,01,55,7.70
2017,05,06,01,56,7.70
2017,05,06,01,57,7.60
2017,05,06,01,58,7.60
2017,05,06,01,59,7.60
2017,05,06,02,00,7.60
2017,05,06,02,01,7.60
2017,05,06,02,02,7.60
2017,05,06,02,03,7.60
2017,05,06,02,04,7.50
2017,05,06,02,05,7.50
2017,05,06,02,06,7.50
2017,05,06,02,07,7.50
2017,05,06,02,08,7.50
2017,05,06,02,09,7.60
2017,05,06,02,10,7.60
2017,05,06,02,11,7.60
2017,05,06,02,12,7.60
2017,05,06,02,13,7.60
2017,05,06,02,14,7.60
2017,05,06,02,15,7.60
2017,05,06,02,16,7.60
2017,05,06,02,17,7.60
2017,05,06,02,18,7.60
2017,05,06,02,19,7.60
2017,05,06,02,20,7.60
2017,05,06,02,21,7.50
2017,05,06,02,22,7.50
2017,05,06,02,23,7.50
2017,05,06,02,24,7.50
2017,05,06,02,25,7.50
2017,05,06,02,26,7.60
2017,05,06,02,27,7.60
2017,05,06,02,28,7.60
2017,05,06,02,29,7.60
2017,05,06,02,30,7.60
2017,05,06,02,31,7.60
2017,05,06,02,32,7.60
2017,05,06,02,33,7.60
2017,05,06,02,34,7.60
2017,05,06,02,35,7.60
2017,05,06,02,36,7.60
2017,05,06,02,37,7.60
2017,05,06,02,38,7.60
2017,05,06,02,39,7.60
2017,05,06,02,40,7.60
2017,05,06,02,41,7.60
2017,05,06,02,42,7.60
2017,05,06,02,43,7.60
2017,05,06,02,44,7.60
2017,05,06,02,45,7.70
2017,05,06,02,46,7.60
2017,05,06,02,47,7.70
2017,05,06,02,48,7.70
2017,05,06,02,49,7.70
2017,05,06,02,50,7.60
2017,05,06,02,51,7.60
2017,05,06,02,52,7.60
2017,05,06,02,53,7.60
2017,05,06,02,54,7.60
2017,05,06,02,55,7.50
2017,05,06,02,56,7.50
2017,05,06,02,57,7.40
2017,05,06,02,58,7.40
2017,05,06,02,59,7.40
2017,05,06,03,00,7.40
2017,05,06,03,01,7.40
2017,05,06,03,02,7.40
2017,05,06,03,03,7.40
2017,05,06,03,04,7.40
2017,05,06,03,05,7.40
2017,05,06,03,06,7.40
2017,05,06,03,07,7.40
2017,05,06,03,08,7.40
2017,05,06,03,09,7.40
2017,05,06,03,10,7.40
2017,05,06,03,11,7.40
2017,05,06,03,12,7.30
2017,05,06,03,13,7.30
2017,05,06,03,14,7.30
2017,05,06,03,15,7.30
2017,05,06,03,16,7.30
2017,05,06,03,17,7.30
2017,05,06,03,18,7.30
2017,05,06,03,19,7.20
2017,05,06,03,20,7.20
2017,05,06,03,21,7.20
2017,05,06,03,22,7.20
2017,05,06,03,23,7.20
2017,05,06,03,24,7.20
2017,05,06,03,25,7.20
2017,05,06,03,26,7.20
2017,05,06,03,27,7.10
2017,05,06,03,28,7.10
2017,05,06,03,29,7.10
2017,05,06,03,30,7.00
2017,05,06,03,31,7.10
2017,05,06,03,32,7.10
2017,05,06,03,33,7.10
2017,05,06,03,34,7.20
2017,05,06,03,35,7.20
2017,05,06,03,36,7.20
2017,05,06,03,37,7.30
2017,05,06,03,38,7.30
2017,05,06,03,39,7.40
2017,05,06,03,40,7.40
2017,05,06,03,41,7.50
2017,05,06,03,42,7.50
2017,05,06,03,43,7.60
2017,05,06,03,44,7.60
2017,05,06,03,45,7.60
2017,05,06,03,46,7.60
2017,05,06,03,47,7.60
2017,05,06,03,48,7.70
2017,05,06,03,49,7.70
2017,05,06,03,50,7.70
2017,05,06,03,51,7.80
2017,05,06,03,52,7.80
2017,05,06,03,53,7.90
2017,05,06,03,54,7.90
2017,05,06,03,55,7.90
2017,05,06,03,56,7.90
2017,05,06,03,57,7.90
2017,05,06,03,58,7.90
2017,05,06,03,59,7.90
2017,05,06,04,00,7.90
2017,05,06,04,01,7.90
2017,05,06,04,02,7.90
2017,05,06,04,03,7.90
2017,05,06,04,04,7.90
2017,05,06,04,05,7.80
2017,05,06,04,06,7.80
2017,05,06,04,07,7.80
2017,05,06,04,08,7.80
2017,05,06,04,09,7.70
2017,05,06,04,10,7.70
2017,05,06,04,11,7.60
2017,05,06,04,12,7.60
2017,05,06,04,13,7.60
2017,05,06,04,14,7.50
2017,05,06,04,15,7.50
2017,05,06,04,16,7.50
2017,05,06,04,17,7.40
2017,05,06,04,18,7.40
2017,05,06,04,19,7.40
2017,05,06,04,20,7.30
2017,05,06,04,21,7.30
2017,05,06,04,22,7.30
2017,05,06,04,23,7.20
2017,05,06,04,24,7.20
2017,05,06,04,25,7.20
2017,05,06,04,26,7.20
2017,05,06,04,27,7.20
2017,05,06,04,28,7.10
2017,05,06,04,29,7.10
2017,05,06,04,30,7.10
2017,05,06,04,31,7.10
2017,05,06,04,32,7.10
2017,05,06,04,33,7.00
2017,05,06,04,34,7.00
2017,05,06,04,35,7.00
2017,05,06,04,36,6.90
2017,05,06,04,37,6.90
2017,05,06,04,38,6.90
2017,05,06,04,39,6.90
2017,05,06,04,40,6.90
2017,05,06,04,41,6.90
2017,05,06,04,42,6.90
2017,05,06,04,43,6.90
2017,05,06,04,44,6.90
2017,05,06,04,45,6.90
2017,05,06,04,46,7.00
2017,05,06,04,47,7.00
2017,05,06,04,48,7.10
2017,05,06,04,49,7.10
2017,05,06,04,50,7.10
2017,05,06,04,51,7.10
2017,05,06,04,52,7.10
2017,05,06,04,53,7.00
2017,05,06,04,54,7.00
2017,05,06,04,55,6.90
2017,05,06,04,56,6.90
2017,05,06,04,57,6.90
2017,05,06,04,58,6.80
2017,05,06,04,59,6.80
2017,05,06,05,00,6.80
2017,05,06,05,01,6.80
2017,05,06,05,02,6.70
2017,05,06,05,03,6.70
2017,05,06,05,04,6.60
2017,05,06,05,05,6.60
2017,05,06,05,06,6.50
2017,05,06,05,07,6.40
2017,05,06,05,08,6.40
2017,05,06,05,09,6.30
2017,05,06,05,10,6.20
2017,05,06,05,11,6.20
2017,05,06,05,12,6.10
2017,05,06,05,13,6.00
2017,05,06,05,14,5.90
2017,05,06,05,15,5.80
2017,05,06,05,16,5.80
2017,05,06,05,17,5.70
2017,05,06,05,18,5.60
2017,05,06,05,19,5.50
2017,05,06,05,20,5.40
2017,05,06,05,21,5.40
2017,05,06,05,22,5.30
2017,05,06,05,23,5.20
2017,05,06,05,24,5.20
2017,05,06,05,25,5.20
2017,05,06,05,26,5.10
2017,05,06,05,27,5.10
2017,05,06,05,28,5.10
2017,05,06,05,29,5.10
2017,05,06,05,30,5.20
2017,05,06,05,31,5.20
2017,05,06,05,32,5.20
2017,05,06,05,33,5.20
2017,05,06,05,34,5.20
2017,05,06,05,35,5.30
2017,05,06,05,36,5.30
2017,05,06,05,37,5.30
2017,05,06,05,38,5.30
2017,05,06,05,39,5.30
2017,05,06,05,40,5.30
2017,05,06,05,41,5.30
2017,05,06,05,42,5.30
2017,05,06,05,43,5.30
2017,05,06,05,44,5.20
2017,05,06,05,45,5.20
2017,05,06,05,46,5.10
2017,05,06,05,47,5.10
2017,05,06,05,48,5.00
2017,05,06,05,49,5.00
2017,05,06,05,50,5.00
2017,05,06,05,51,4.90
2017,05,06,05,52,4.90
2017,05,06,05,53,4.90
2017,05,06,05,54,4.90
2017,05,06,05,55,4.80
2017,05,06,05,56,4.80
2017,05,06,05,57,4.80
2017,05,06,05,58,4.80
2017,05,06,05,59,4.80
2017,05,06,06,00,4.80
2017,05,06,06,01,4.80
2017,05,06,06,02,4.80
2017,05,06,06,03,4.80
2017,05,06,06,04,4.80
2017,05,06,06,05,4.80
2017,05,06,06,06,4.80
2017,05,06,06,07,4.80
2017,05,06,06,08,4.70
2017,05,06,06,09,4.70
2017,05,06,06,10,4.70
2017,05,06,06,11,4.70
2017,05,06,06,12,4.70
2017,05,06,06,13,4.60
2017,05,06,06,14,4.60
2017,05,06,06,15,4.60
2017,05,06,06,16,4.70
2017,05,06,06,17,4.70
2017,05,06,06,18,4.70
2017,05,06,06,19,4.80
2017,05,06,06,20,4.80
2017,05,06,06,21,4.90
2017,05,06,06,22,5.00
2017,05,06,06,23,5.10
2017,05,06,06,24,5.20
2017,05,06,06,25,5.30
2017,05,06,06,26,5.40
2017,05,06,06,27,5.50
2017,05,06,06,28,5.60
2017,05,06,06,29,5.60
2017,05,06,06,30,5.70
2017,05,06,06,31,5.70
2017,05,06,06,32,5.80
2017,05,06,06,33,5.90
2017,05,06,06,34,6.00
2017,05,06,06,35,6.10
2017,05,06,06,36,6.10
2017,05,06,06,37,6.20
2017,05,06,06,38,6.30
2017,05,06,06,39,6.30
2017,05,06,06,40,6.40
2017,05,06,06,41,6.50
2017,05,06,06,42,6.60
2017,05,06,06,43,6.70
2017,05,06,06,44,6.70
2017,05,06,06,45,6.80
2017,05,06,06,46,6.90
2017,05,06,06,47,7.00
2017,05,06,06,48,7.00
2017,05,06,06,49,7.10
2017,05,06,06,50,7.10
2017,05,06,06,51,7.20
2017,05,06,06,52,7.20
2017,05,06,06,53,7.30
2017,05,06,06,54,7.30
2017,05,06,06,55,7.30
2017,05,06,06,56,7.40
2017,05,06,06,57,7.40
2017,05,06,06,58,7.40
2017,05,06,06,59,7.50
2017,05,06,07,00,7.50
2017,05,06,07,01,7.60
2017,05,06,07,02,7.60
2017,05,06,07,03,7.60
2017,05,06,07,04,7.70
2017,05,06,07,05,7.70
2017,05,06,07,06,7.70
2017,05,06,07,07,7.70
2017,05,06,07,08,7.70
2017,05,06,07,09,7.70
2017,05,06,07,10,7.70
2017,05,06,07,11,7.70
2017,05,06,07,12,7.70
2017,05,06,07,13,7.80
2017,05,06,07,14,7.80
2017,05,06,07,15,7.80
2017,05,06,07,16,7.90
2017,05,06,07,17,7.90
2017,05,06,07,18,8.00
2017,05,06,07,19,8.10
2017,05,06,07,20,8.10
2017,05,06,07,21,8.10
2017,05,06,07,22,8.20
2017,05,06,07,23,8.20
2017,05,06,07,24,8.30
2017,05,06,07,25,8.30
2017,05,06,07,26,8.40
2017,05,06,07,27,8.40
2017,05,06,07,28,8.40
2017,05,06,07,29,8.50
2017,05,06,07,30,8.50
2017,05,06,07,31,8.50
2017,05,06,07,32,8.60
2017,05,06,07,33,8.60
2017,05,06,07,34,8.60
2017,05,06,07,35,8.60
2017,05,06,07,36,8.60
2017,05,06,07,37,8.60
2017,05,06,07,38,8.60
2017,05,06,07,39,8.70
2017,05,06,07,40,8.70
2017,05,06,07,41,8.70
2017,05,06,07,42,8.70
2017,05,06,07,43,8.80
2017,05,06,07,44,8.80
2017,05,06,07,45,8.80
2017,05,06,07,46,8.80
2017,05,06,07,47,8.80
2017,05,06,07,48,8.80
2017,05,06,07,49,8.90
2017,05,06,07,50,8.90
2017,05,06,07,51,9.00
2017,05,06,07,52,9.00
2017,05,06,07,53,9.10
2017,05,06,07,54,9.10
2017,05,06,07,55,9.10
2017,05,06,07,56,9.10
2017,05,06,07,57,9.10
2017,05,06,07,58,9.10
2017,05,06,07,59,9.10
2017,05,06,08,00,9.10
2017,05,06,08,01,9.10
2017,05,06,08,02,9.20
2017,05,06,08,03,9.20
2017,05,06,08,04,9.20
2017,05,06,08,05,9.20
2017,05,06,08,06,9.30
2017,05,06,08,07,9.30
2017,05,06,08,08,9.30
2017,05,06,08,09,9.30
2017,05,06,08,10,9.40
2017,05,06,08,11,9.40
2017,05,06,08,12,9.40
2017,05,06,08,13,9.30
2017,05,06,08,14,9.30
2017,05,06,08,15,9.30
2017,05,06,08,16,9.20
2017,05,06,08,17,9.20
2017,05,06,08,18,9.20
2017,05,06,08,19,9.20
2017,05,06,08,20,9.20
2017,05,06,08,21,9.30
2017,05,06,08,22,9.30
2017,05,06,08,23,9.30
2017,05,06,08,24,9.30
2017,05,06,08,25,9.30
2017,05,06,08,26,9.30
2017,05,06,08,27,9.30
2017,05,06,08,28,9.40
2017,05,06,08,29,9.40
2017,05,06,08,30,9.40
2017,05,06,08,31,9.40
2017,05,06,08,32,9.40
2017,05,06,08,33,9.40
2017,05,06,08,34,9.50
2017,05,06,08,35,9.50
2017,05,06,08,36,9.50
2017,05,06,08,37,9.60
2017,05,06,08,38,9.60
2017,05,06,08,39,9.60
2017,05,06,08,40,9.70
2017,05,06,08,41,9.70
2017,05,06,08,42,9.70
2017,05,06,08,43,9.80
2017,05,06,08,44,9.80
2017,05,06,08,45,9.80
2017,05,06,08,46,9.80
2017,05,06,08,47,9.80
2017,05,06,08,48,9.80
2017,05,06,08,49,9.80
2017,05,06,08,50,9.80
2017,05,06,08,51,9.80
2017,05,06,08,52,9.80
2017,05,06,08,53,9.90
2017,05,06,08,54,9.90
2017,05,06,08,55,9.90
2017,05,06,08,56,9.90
2017,05,06,08,57,9.90
2017,05,06,08,58,9.90
2017,05,06,08,59,9.90
2017,05,06,09,00,10.00
2017,05,06,09,01,10.00
2017,05,06,09,02,10.00
2017,05,06,09,03,10.10
2017,05,06,09,04,10.10
2017,05,06,09,05,10.10
2017,05,06,09,06,10.10
2017,05,06,09,07,10.10
2017,05,06,09,08,10.10
2017,05,06,09,09,10.20
2017,05,06,09,10,10.20
2017,05,06,09,11,10.20
2017,05,06,09,12,10.30
2017,05,06,09,13,10.40
2017,05,06,09,14,10.50
2017,05,06,09,15,10.50
2017,05,06,09,16,10.60
2017,05,06,09,17,10.60
2017,05,06,09,18,10.60
2017,05,06,09,19,10.60
2017,05,06,09,20,10.60
2017,05,06,09,21,10.60
2017,05,06,09,22,10.60
2017,05,06,09,23,10.70
2017,05,06,09,24,10.80
2017,05,06,09,25,10.90
2017,05,06,09,26,11.00
2017,05,06,09,27,11.10
2017,05,06,09,28,11.10
2017,05,06,09,29,11.10
2017,05,06,09,30,11.10
2017,05,06,09,31,11.10
2017,05,06,09,32,11.10
2017,05,06,09,33,11.00
2017,05,06,09,34,11.00
2017,05,06,09,35,11.00
2017,05,06,09,36,11.20
2017,05,06,09,37,11.30
2017,05,06,09,38,11.40
2017,05,06,09,39,11.50
2017,05,06,09,40,11.60
2017,05,06,09,41,11.60
2017,05,06,09,42,11.50
2017,05,06,09,43,11.50
2017,05,06,09,44,11.50
2017,05,06,09,45,11.40
2017,05,06,09,46,11.40
2017,05,06,09,47,11.40
2017,05,06,09,48,11.40
2017,05,06,09,49,11.40
2017,05,06,09,50,11.50
2017,05,06,09,51,11.50
2017,05,06,09,52,11.60
2017,05,06,09,53,11.50
2017,05,06,09,54,11.50
2017,05,06,09,55,11.50
2017,05,06,09,56,11.60
2017,05,06,09,57,11.70
2017,05,06,09,58,11.70
2017,05,06,09,59,11.80
2017,05,06,10,00,11.90
2017,05,06,10,01,12.00
2017,05,06,10,02,12.20
2017,05,06,10,03,12.20
2017,05,06,10,04,12.10
2017,05,06,10,05,12.00
2017,05,06,10,06,11.90
2017,05,06,10,07,11.80
2017,05,06,10,08,11.80
2017,05,06,10,09,11.80
2017,05,06,10,10,11.70
2017,05,06,10,11,11.70
2017,05,06,10,12,11.70
2017,05,06,10,13,11.70
2017,05,06,10,14,11.80
2017,05,06,10,15,11.90
2017,05,06,10,16,12.10
2017,05,06,10,17,12.20
2017,05,06,10,18,12.20
2017,05,06,10,19,12.20
2017,05,06,10,20,12.20
2017,05,06,10,21,12.20
2017,05,06,10,22,12.20
2017,05,06,10,23,12.30
2017,05,06,10,24,12.20
2017,05,06,10,25,12.20
2017,05,06,10,26,12.20
2017,05,06,10,27,12.20
2017,05,06,10,28,12.20
2017,05,06,10,29,12.20
2017,05,06,10,30,12.30
2017,05,06,10,31,12.40
2017,05,06,10,32,12.30
2017,05,06,10,33,12.20
2017,05,06,10,34,12.10
2017,05,06,10,35,12.00
2017,05,06,10,36,11.90
2017,05,06,10,37,11.90
2017,05,06,10,38,11.90
2017,05,06,10,39,11.90
2017,05,06,10,40,11.90
2017,05,06,10,41,12.10
2017,05,06,10,42,12.20
2017,05,06,10,43,12.30
2017,05,06,10,44,12.30
2017,05,06,10,45,12.30
2017,05,06,10,46,12.20
2017,05,06,10,47,12.10
2017,05,06,10,48,12.00
2017,05,06,10,49,12.10
2017,05,06,10,50,12.30
2017,05,06,10,51,12.50
2017,05,06,10,52,12.60
2017,05,06,10,53,12.60
2017,05,06,10,54,12.60
2017,05,06,10,55,12.60
2017,05,06,10,56,12.50
2017,05,06,10,57,12.50
2017,05,06,10,58,12.60
2017,05,06,10,59,12.70
2017,05,06,11,00,12.80
2017,05,06,11,01,12.90
2017,05,06,11,02,12.90
2017,05,06,11,03,12.90
2017,05,06,11,04,12.90
2017,05,06,11,05,12.80
2017,05,06,11,06,12.80
2017,05,06,11,07,12.90
2017,05,06,11,08,13.00
2017,05,06,11,09,13.30
2017,05,06,11,10,13.40
2017,05,06,11,11,13.50
2017,05,06,11,12,13.40
2017,05,06,11,13,13.30
2017,05,06,11,14,13.30
2017,05,06,11,15,13.30
2017,05,06,11,16,13.10
2017,05,06,11,17,13.10
2017,05,06,11,18,13.10
2017,05,06,11,19,13.00
2017,05,06,11,20,13.00
2017,05,06,11,21,12.90
2017,05,06,11,22,12.90
2017,05,06,11,23,12.80
2017,05,06,11,24,12.70
2017,05,06,11,25,12.60
2017,05,06,11,26,12.60
2017,05,06,11,27,12.70
2017,05,06,11,28,12.90
2017,05,06,11,29,13.00
2017,05,06,11,30,13.10
2017,05,06,11,31,13.10
2017,05,06,11,32,13.00
2017,05,06,11,33,12.90
2017,05,06,11,34,12.80
2017,05,06,11,35,12.90
2017,05,06,11,36,12.90
2017,05,06,11,37,12.70
2017,05,06,11,38,12.60
2017,05,06,11,39,12.60
2017,05,06,11,40,12.50
2017,05,06,11,41,12.50
2017,05,06,11,42,12.40
2017,05,06,11,43,12.60
2017,05,06,11,44,12.60
2017,05,06,11,45,12.60
2017,05,06,11,46,12.70
2017,05,06,11,47,12.80
2017,05,06,11,48,12.80
2017,05,06,11,49,12.70
2017,05,06,11,50,12.70
2017,05,06,11,51,12.80
2017,05,06,11,52,12.90
2017,05,06,11,53,12.90
2017,05,06,11,54,12.90
2017,05,06,11,55,12.90
2017,05,06,11,56,12.90
2017,05,06,11,57,12.90
2017,05,06,11,58,12.80
2017,05,06,11,59,12.80
2017,05,06,12,00,12.70
2017,05,06,12,01,12.60
2017,05,06,12,02,12.60
2017,05,06,12,03,12.60
2017,05,06,12,04,12.60
2017,05,06,12,05,12.80
2017,05,06,12,06,12.80
2017,05,06,12,07,12.90
2017,05,06,12,08,13.00
2017,05,06,12,09,13.00
2017,05,06,12,10,13.10
2017,05,06,12,11,13.10
2017,05,06,12,12,13.10
2017,05,06,12,13,13.10
2017,05,06,12,14,13.10
2017,05,06,12,15,13.20
2017,05,06,12,16,13.20
2017,05,06,12,17,13.20
2017,05,06,12,18,13.30
2017,05,06,12,19,13.50
2017,05,06,12,20,13.50
2017,05,06,12,21,13.20
2017,05,06,12,22,13.00
2017,05,06,12,23,13.00
2017,05,06,12,24,12.90
2017,05,06,12,25,12.90
2017,05,06,12,26,12.80
2017,05,06,12,27,13.00
2017,05,06,12,28,13.10
2017,05,06,12,29,13.00
2017,05,06,12,30,13.10
2017,05,06,12,31,13.00
2017,05,06,12,32,13.00
2017,05,06,12,33,13.20
2017,05,06,12,34,13.20
2017,05,06,12,35,13.20
2017,05,06,12,36,13.20
2017,05,06,12,37,13.10
2017,05,06,12,38,13.00
2017,05,06,12,39,12.90
2017,05,06,12,40,12.80
2017,05,06,12,41,12.70
2017,05,06,12,42,12.60
2017,05,06,12,43,12.50
2017,05,06,12,44,12.20
2017,05,06,12,45,12.10
2017,05,06,12,46,12.10
2017,05,06,12,47,12.20
2017,05,06,12,48,12.30
2017,05,06,12,49,12.40
2017,05,06,12,50,12.40
2017,05,06,12,51,12.60
2017,05,06,12,52,12.70
2017,05,06,12,53,12.80
2017,05,06,12,54,12.90
2017,05,06,12,55,13.00
2017,05,06,12,56,13.20
2017,05,06,12,57,13.20
2017,05,06,12,58,13.20
2017,05,06,12,59,13.20
2017,05,06,13,00,13.00
2017,05,06,13,01,12.90
2017,05,06,13,02,13.00
2017,05,06,13,03,13.10
2017,05,06,13,04,13.20
2017,05,06,13,05,13.30
2017,05,06,13,06,13.40
2017,05,06,13,07,13.40
2017,05,06,13,08,13.30
2017,05,06,13,09,13.40
2017,05,06,13,10,13.40
2017,05,06,13,11,13.40
2017,05,06,13,12,13.30
2017,05,06,13,13,13.40
2017,05,06,13,14,13.30
2017,05,06,13,15,13.40
2017,05,06,13,16,13.40
2017,05,06,13,17,13.30
2017,05,06,13,18,13.20
2017,05,06,13,19,13.20
2017,05,06,13,20,13.20
2017,05,06,13,21,13.30
2017,05,06,13,22,13.40
2017,05,06,13,23,13.50
2017,05,06,13,24,13.60
2017,05,06,13,25,13.60
2017,05,06,13,26,13.70
2017,05,06,13,27,13.90
2017,05,06,13,28,14.00
2017,05,06,13,29,13.90
2017,05,06,13,30,13.80
2017,05,06,13,31,13.70
2017,05,06,13,32,13.60
2017,05,06,13,33,13.70
2017,05,06,13,34,13.70
2017,05,06,13,35,13.70
2017,05,06,13,36,13.70
2017,05,06,13,37,13.80
2017,05,06,13,38,14.00
2017,05,06,13,39,14.10
2017,05,06,13,40,13.90
2017,05,06,13,41,13.70
2017,05,06,13,42,13.50
2017,05,06,13,43,13.40
2017,05,06,13,44,13.30
2017,05,06,13,45,13.30
2017,05,06,13,46,13.30
2017,05,06,13,47,13.40
2017,05,06,13,48,13.60
2017,05,06,13,49,13.80
2017,05,06,13,50,13.90
2017,05,06,13,51,14.00
2017,05,06,13,52,13.90
2017,05,06,13,53,13.80
2017,05,06,13,54,13.80
2017,05,06,13,55,13.60
2017,05,06,13,56,13.60
2017,05,06,13,57,13.60
2017,05,06,13,58,13.50
2017,05,06,13,59,13.50
2017,05,06,14,00,13.40
2017,05,06,14,01,13.30
2017,05,06,14,02,13.20
2017,05,06,14,03,13.10
2017,05,06,14,04,13.20
2017,05,06,14,05,13.30
2017,05,06,14,06,13.50
2017,05,06,14,07,13.70
2017,05,06,14,08,14.00
2017,05,06,14,09,14.10
2017,05,06,14,10,14.20
2017,05,06,14,11,14.20
2017,05,06,14,12,14.30
2017,05,06,14,13,14.30
2017,05,06,14,14,14.30
2017,05,06,14,15,14.30
2017,05,06,14,16,14.30
2017,05,06,14,17,14.40
2017,05,06,14,18,14.40
2017,05,06,14,19,14.30
2017,05,06,14,20,14.40
2017,05,06,14,21,14.60
2017,05,06,14,22,14.60
2017,05,06,14,23,14.60
2017,05,06,14,24,14.70
2017,05,06,14,25,14.70
2017,05,06,14,26,14.60
2017,05,06,14,27,14.50
2017,05,06,14,28,14.40
2017,05,06,14,29,14.40
2017,05,06,14,30,14.40
2017,05,06,14,31,14.40
2017,05,06,14,32,14.40
2017,05,06,14,33,14.50
2017,05,06,14,34,14.50
2017,05,06,14,35,14.50
2017,05,06,14,36,14.40
2017,05,06,14,37,14.30
2017,05,06,14,38,14.40
2017,05,06,14,39,14.40
2017,05,06,14,40,14.50
2017,05,06,14,41,14.60
2017,05,06,14,42,14.70
2017,05,06,14,43,14.80
2017,05,06,14,44,14.80
2017,05,06,14,45,14.80
2017,05,06,14,46,14.80
2017,05,06,14,47,14.80
2017,05,06,14,48,14.60
2017,05,06,14,49,14.50
2017,05,06,14,50,14.40
2017,05,06,14,51,14.40
2017,05,06,14,52,14.40
2017,05,06,14,53,14.30
2017,05,06,14,54,14.20
2017,05,06,14,55,14.00
2017,05,06,14,56,13.80
2017,05,06,14,57,13.60
2017,05,06,14,58,13.60
2017,05,06,14,59,13.50
2017,05,06,15,00,13.40
2017,05,06,15,01,13.40
2017,05,06,15,02,13.30
2017,05,06,15,03,13.30
2017,05,06,15,04,13.30
2017,05,06,15,05,13.30
2017,05,06,15,06,13.40
2017,05,06,15,07,13.40
2017,05,06,15,08,13.50
2017,05,06,15,09,13.60
2017,05,06,15,10,13.70
2017,05,06,15,11,13.80
2017,05,06,15,12,13.70
2017,05,06,15,13,13.70
2017,05,06,15,14,13.70
2017,05,06,15,15,13.70
2017,05,06,15,16,13.60
2017,05,06,15,17,13.60
2017,05,06,15,18,13.60
2017,05,06,15,19,13.70
2017,05,06,15,20,13.70
2017,05,06,15,21,13.60
2017,05,06,15,22,13.50
2017,05,06,15,23,13.40
2017,05,06,15,24,13.40
2017,05,06,15,25,13.30
2017,05,06,15,26,13.40
2017,05,06,15,27,13.50
2017,05,06,15,28,13.60
2017,05,06,15,29,13.80
2017,05,06,15,30,13.90
2017,05,06,15,31,13.90
2017,05,06,15,32,13.90
2017,05,06,15,33,13.90
2017,05,06,15,34,13.90
2017,05,06,15,35,13.90
2017,05,06,15,36,13.90
2017,05,06,15,37,13.90
2017,05,06,15,38,13.90
2017,05,06,15,39,14.00
2017,05,06,15,40,14.10
2017,05,06,15,41,14.20
2017,05,06,15,42,14.10
2017,05,06,15,43,14.10
2017,05,06,15,44,14.00
2017,05,06,15,45,13.90
2017,05,06,15,46,13.90
2017,05,06,15,47,13.90
2017,05,06,15,48,13.90
2017,05,06,15,49,13.80
2017,05,06,15,50,13.70
2017,05,06,15,51,13.60
2017,05,06,15,52,13.50
2017,05,06,15,53,13.40
2017,05,06,15,54,13.30
2017,05,06,15,55,13.20
2017,05,06,15,56,13.20
2017,05,06,15,57,13.10
2017,05,06,15,58,13.10
2017,05,06,15,59,13.20
2017,05,06,16,00,13.20
2017,05,06,16,01,13.30
2017,05,06,16,02,13.40
2017,05,06,16,03,13.40
2017,05,06,16,04,13.50
2017,05,06,16,05,13.50
2017,05,06,16,06,13.70
2017,05,06,16,07,13.80
2017,05,06,16,08,14.00
2017,05,06,16,09,14.10
2017,05,06,16,10,14.20
2017,05,06,16,11,14.20
2017,05,06,16,12,14.20
2017,05,06,16,13,14.20
2017,05,06,16,14,14.30
2017,05,06,16,15,14.30
2017,05,06,16,16,14.30
2017,05,06,16,17,14.30
2017,05,06,16,18,14.30
2017,05,06,16,19,14.40
2017,05,06,16,20,14.50
2017,05,06,16,21,14.50
2017,05,06,16,22,14.60
2017,05,06,16,23,14.70
2017,05,06,16,24,14.70
2017,05,06,16,25,14.80
2017,05,06,16,26,14.80
2017,05,06,16,27,14.70
2017,05,06,16,28,14.70
2017,05,06,16,29,14.70
2017,05,06,16,30,14.60
2017,05,06,16,31,14.70
2017,05,06,16,32,14.80
2017,05,06,16,33,14.80
2017,05,06,16,34,14.90
2017,05,06,16,35,14.90
2017,05,06,16,36,14.90
2017,05,06,16,37,14.90
2017,05,06,16,38,14.80
2017,05,06,16,39,14.70
2017,05,06,16,40,14.60
2017,05,06,16,41,14.60
2017,05,06,16,42,14.60
2017,05,06,16,43,14.50
2017,05,06,16,44,14.30
2017,05,06,16,45,14.20
2017,05,06,16,46,14.10
2017,05,06,16,47,14.10
2017,05,06,16,48,14.10
2017,05,06,16,49,14.10
2017,05,06,16,50,14.00
2017,05,06,16,51,13.90
2017,05,06,16,52,13.80
2017,05,06,16,53,13.70
2017,05,06,16,54,13.60
2017,05,06,16,55,13.50
2017,05,06,16,56,13.40
2017,05,06,16,57,13.30
2017,05,06,16,58,13.30
2017,05,06,16,59,13.30
2017,05,06,17,00,13.10
2017,05,06,17,01,13.00
2017,05,06,17,02,12.90
2017,05,06,17,03,12.90
2017,05,06,17,04,12.80
2017,05,06,17,05,12.80
2017,05,06,17,06,12.80
2017,05,06,17,07,12.80
2017,05,06,17,08,12.90
2017,05,06,17,09,12.90
2017,05,06,17,10,12.90
2017,05,06,17,11,12.90
2017,05,06,17,12,12.80
2017,05,06,17,13,12.80
2017,05,06,17,14,12.80
2017,05,06,17,15,12.80
2017,05,06,17,16,12.80
2017,05,06,17,17,12.70
2017,05,06,17,18,12.60
2017,05,06,17,19,12.50
2017,05,06,17,20,12.40
2017,05,06,17,21,12.40
2017,05,06,17,22,12.40
2017,05,06,17,23,12.40
2017,05,06,17,24,12.40
2017,05,06,17,25,12.50
2017,05,06,17,26,12.50
2017,05,06,17,27,12.50
2017,05,06,17,28,12.50
2017,05,06,17,29,12.50
2017,05,06,17,30,12.50
2017,05,06,17,31,12.60
2017,05,06,17,32,12.60
2017,05,06,17,33,12.60
2017,05,06,17,34,12.60
2017,05,06,17,35,12.60
2017,05,06,17,36,12.60
2017,05,06,17,37,12.50
2017,05,06,17,38,12.40
2017,05,06,17,39,12.20
2017,05,06,17,40,12.20
2017,05,06,17,41,12.20
2017,05,06,17,42,12.10